Volver al catálogo

ONEWEB-0296

ActivoComunicacionesPO
NORAD 49085·PAYLOAD·🇬🇧 United Kingdom

Lanzado Aug 21, 2021 desde Baikonur Cosmodrome

Loading…

Próximos Pases (próximas 24 horas)

TLE

ActualizadoSource: CelesTrak SupGP

Época: Sep 14, 2026, 12:44 UTC

1 49085C 21075L   26257.53104583  .00002685  00000+0  74713-2 0  2573
2 49085  87.8986 332.9307 0001703 109.0115   1.5619 13.12440855    15

Sigue ONEWEB-0296 en tiempo real con AllMySat

Download on the App Store